Harbor Springs, MI

7:48 AM EST on February 23, 2018 (GMT -0500)
Harbor Springs

Weather History for KMGN - August, 2014

Change the Weather History Date:

Sunday, August 17, 2014

  Actual Average (KPLN) Record (KPLN)
Temperature  
Mean Temperature 60 °F -  
Max Temperature 68 °F 76 °F 90 °F (1955)
Min Temperature 53 °F 53 °F 33 °F (1962)
Degree Days  
Heating Degree Days 4    
Growing Degree Days 10 (Base 50)    
Moisture  
Dew Point 56 °F    
Average Humidity 82    
Maximum Humidity 95    
Minimum Humidity 63    
Precipitation  
Precipitation 0.00 in - - ()
Sea Level Pressure  
Sea Level Pressure 30.02 in    
Wind  
Wind Speed 3 mph (ENE)    
Max Wind Speed 8 mph    
Max Gust Speed -    
Visibility 10 miles    
Events      
Averages and records for this station are not official NWS values.
T = Trace of Precipitation, MM = Missing Value Source: NWS Daily Summary

Daily Weather History Graph

Daily Weather History Graph

Search for Another Location

Airport or City:

Trip Planner

Search our weather history database for the weather conditions in past years. The results will help you decide how hot, cold, wet, or windy it might be!

Date:

Astronomy

Aug. 17, 2014 Rise Set
Actual Time 6:42 AM EDT 8:43 PM EDT
Civil Twilight 6:10 AM EDT 9:15 PM EDT
Nautical Twilight 5:31 AM EDT 9:54 PM EDT
Astronomical Twilight 4:47 AM EDT 10:37 PM EDT
Moon 12:06 AM EDT (8/17) 2:51 PM EDT (8/17)
Length of Visible Light 15h 04m
Length of Day
14h 00m
Waning Gibbous, 48% of the Moon is Illuminated
Aug 17
Waning Gibbous
Aug 25
New
Sep 2
First Quarter
Sep 8
Full
Sep 15
Last Quarter

Hourly Weather History & Observations

Time (EDT) Temp. Dew Point Humidity Pressure Visibility Wind Dir Wind Speed Gust Speed Precip Events Conditions
12:15 AM 58.1 °F 54.9 °F 89% 29.95 in 10.0 mi NW 4.6 mph - N/A   Clear
12:35 AM 57.6 °F 54.7 °F 90% 29.96 in 10.0 mi Calm Calm - N/A   Clear
12:55 AM 58.1 °F 54.5 °F 88% 29.96 in 10.0 mi Calm Calm - N/A   Clear
1:15 AM 56.8 °F 54.0 °F 90% 29.96 in 10.0 mi Calm Calm - N/A   Clear
1:35 AM 55.0 °F 53.6 °F 95% 29.97 in 10.0 mi Calm Calm - N/A   Clear
1:55 AM 55.9 °F 53.4 °F 91% 29.97 in 10.0 mi Calm Calm - N/A   Clear
2:14 AM 56.3 °F 54.1 °F 92% 29.96 in 10.0 mi NNE 6.9 mph - N/A   Clear
2:35 AM 56.7 °F 54.1 °F 91% 29.96 in 10.0 mi North 8.1 mph - N/A   Clear
2:55 AM 56.3 °F 54.0 °F 92% 29.97 in 10.0 mi Calm Calm - N/A   Clear
3:15 AM 55.2 °F 53.4 °F 94% 29.98 in 10.0 mi Calm Calm - N/A   Clear
3:35 AM 55.2 °F 53.2 °F 93% 29.98 in 10.0 mi WNW 3.5 mph - N/A   Clear
3:54 AM 55.4 °F 53.4 °F 93% 29.99 in 10.0 mi Calm Calm - N/A   Clear
4:15 AM 54.5 °F 52.9 °F 94% 29.99 in 10.0 mi Calm Calm - N/A   Clear
4:35 AM 53.6 °F 52.0 °F 94% 30.00 in 10.0 mi Calm Calm - N/A   Scattered Clouds
4:55 AM 54.5 °F 52.9 °F 94% 30.00 in 10.0 mi Calm Calm - N/A   Mostly Cloudy
5:15 AM 55.2 °F 53.4 °F 94% 30.00 in 10.0 mi Calm Calm - N/A   Overcast
5:34 AM 55.8 °F 53.8 °F 93% 30.00 in 10.0 mi Calm Calm - N/A   Overcast
5:55 AM 55.8 °F 53.8 °F 93% 30.00 in 10.0 mi Calm Calm - N/A   Overcast
6:15 AM 55.8 °F 53.8 °F 93% 30.01 in 10.0 mi North 3.5 mph - N/A   Overcast
6:35 AM 56.3 °F 54.3 °F 93% 30.01 in 10.0 mi Calm Calm - N/A   Overcast
6:55 AM 56.5 °F 54.5 °F 93% 30.02 in 10.0 mi Calm Calm - N/A   Overcast
7:14 AM 56.7 °F 54.7 °F 93% 30.02 in 10.0 mi NNE 4.6 mph - N/A   Overcast
7:35 AM 56.7 °F 54.9 °F 94% 30.03 in 10.0 mi Calm Calm - N/A   Mostly Cloudy
7:55 AM 58.5 °F 55.8 °F 91% 30.04 in 10.0 mi NE 3.5 mph - N/A   Overcast
8:14 AM 58.8 °F 55.8 °F 90% 30.05 in 10.0 mi Calm Calm - N/A   Overcast
8:35 AM 59.9 °F 56.3 °F 88% 30.04 in 10.0 mi NE 3.5 mph - N/A   Overcast
8:55 AM 60.4 °F 56.7 °F 87% 30.04 in 10.0 mi ENE 4.6 mph - N/A   Overcast
9:15 AM 61.2 °F 56.5 °F 85% 30.04 in 10.0 mi East 5.8 mph - N/A   Overcast
9:35 AM 61.9 °F 56.5 °F 82% 30.05 in 10.0 mi East 5.8 mph - N/A   Overcast
9:55 AM 61.7 °F 56.5 °F 83% 30.06 in 10.0 mi ENE 5.8 mph - N/A   Overcast
10:15 AM 62.4 °F 56.5 °F 81% 30.06 in 10.0 mi ENE 6.9 mph - N/A   Overcast
10:35 AM 62.2 °F 56.3 °F 81% 30.06 in 10.0 mi ENE 3.5 mph - N/A   Overcast
10:55 AM 62.8 °F 56.5 °F 80% 30.06 in 10.0 mi NE 3.5 mph - N/A   Overcast
11:15 AM 63.9 °F 56.5 °F 77% 30.06 in 10.0 mi NNE 3.5 mph - N/A   Overcast
11:35 AM 64.4 °F 56.5 °F 75% 30.06 in 10.0 mi ENE 5.8 mph - N/A   Overcast
11:55 AM 64.4 °F 56.5 °F 75% 30.06 in 10.0 mi Calm Calm - N/A   Overcast
12:15 PM 65.1 °F 56.8 °F 75% 30.06 in 10.0 mi East 3.5 mph - N/A   Overcast
12:34 PM 65.5 °F 57.0 °F 74% 30.06 in 10.0 mi East 4.6 mph - N/A   Overcast
12:55 PM 65.8 °F 56.7 °F 72% 30.06 in 10.0 mi SE 4.6 mph - N/A   Overcast
1:15 PM 65.7 °F 56.3 °F 72% 30.06 in 10.0 mi SSE 3.5 mph - N/A   Overcast
1:35 PM 65.5 °F 56.3 °F 72% 30.06 in 10.0 mi ESE 3.5 mph - N/A   Overcast
1:55 PM 65.8 °F 56.5 °F 72% 30.06 in 10.0 mi SE 3.5 mph - N/A   Overcast
2:14 PM 66.4 °F 56.1 °F 69% 30.06 in 10.0 mi SE 3.5 mph - N/A   Overcast
2:35 PM 66.4 °F 56.1 °F 69% 30.05 in 10.0 mi NE 4.6 mph - N/A   Overcast
2:54 PM 67.1 °F 56.3 °F 68% 30.04 in 10.0 mi ENE 4.6 mph - N/A   Overcast
3:15 PM 67.8 °F 56.1 °F 66% 30.04 in 10.0 mi ENE 4.6 mph - N/A   Overcast
3:35 PM 68.7 °F 56.3 °F 64% 30.04 in 10.0 mi ENE 5.8 mph - N/A   Overcast
3:55 PM 68.7 °F 55.6 °F 63% 30.04 in 10.0 mi ENE 3.5 mph - N/A   Overcast
4:15 PM 68.0 °F 55.4 °F 64% 30.03 in 10.0 mi Calm Calm - N/A   Overcast
4:34 PM 67.1 °F 57.9 °F 72% 30.03 in 10.0 mi WSW 3.5 mph - N/A   Overcast
4:55 PM 66.9 °F 58.1 °F 73% 30.03 in 10.0 mi WSW 3.5 mph - N/A   Overcast
5:15 PM 66.6 °F 57.9 °F 74% 30.03 in 10.0 mi Calm Calm - N/A   Overcast
5:34 PM 67.1 °F 58.1 °F 73% 30.03 in 10.0 mi Calm Calm - N/A   Overcast
6:14 PM 67.5 °F 56.3 °F 67% 30.02 in 10.0 mi ENE 3.5 mph - N/A   Overcast
6:35 PM 67.6 °F 56.3 °F 67% 30.02 in 10.0 mi ENE 3.5 mph - N/A   Overcast
6:54 PM 67.5 °F 56.3 °F 67% 30.01 in 10.0 mi North 3.5 mph - N/A   Overcast
7:14 PM 68.0 °F 55.9 °F 65% 30.00 in 10.0 mi East 6.9 mph - N/A   Scattered Clouds
7:35 PM 67.3 °F 55.2 °F 65% 30.01 in 10.0 mi NE 5.8 mph - N/A   Clear
7:54 PM 66.4 °F 56.8 °F 71% 30.01 in 10.0 mi ENE 8.1 mph - N/A   Clear
8:15 PM 65.3 °F 56.7 °F 74% 30.01 in 10.0 mi NE 4.6 mph - N/A   Clear
8:35 PM 64.2 °F 56.7 °F 76% 30.01 in 10.0 mi ENE 3.5 mph - N/A   Clear
8:54 PM 62.4 °F 57.0 °F 82% 30.01 in 10.0 mi NE 3.5 mph - N/A   Clear
9:15 PM 60.8 °F 56.8 °F 87% 30.02 in 10.0 mi NE 3.5 mph - N/A   Clear
9:34 PM 60.4 °F 56.3 °F 86% 30.02 in 10.0 mi NE 3.5 mph - N/A   Clear
9:54 PM 59.5 °F 55.9 °F 88% 30.03 in 10.0 mi Calm Calm - N/A   Clear
10:15 PM 58.6 °F 55.6 °F 90% 30.02 in 10.0 mi ENE 4.6 mph - N/A   Clear
10:34 PM 58.1 °F 55.4 °F 91% 30.02 in 10.0 mi NE 4.6 mph - N/A   Clear
10:55 PM 58.8 °F 55.8 °F 90% 30.02 in 10.0 mi NE 4.6 mph - N/A   Clear
11:15 PM 58.3 °F 55.4 °F 90% 30.02 in 10.0 mi NE 4.6 mph - N/A   Clear
11:35 PM 57.4 °F 54.9 °F 91% 30.01 in 10.0 mi NE 3.5 mph - N/A   Clear
11:55 PM 57.6 °F 55.0 °F 91% 30.01 in 10.0 mi NE 5.8 mph - N/A   Clear